Home > Weather > Forchheim > Past weeks

Flag for Germany Weather for the Past 2 Weeks in Forchheim, Bavaria, Germany

Now
36 °F

Light rain. Partly cloudy.


Feels Like: 26 °F
Forecast: 36 / 39 °F
Wind: 16 mph from West

Location: Nuernberg

Current Time: Feb 10, 2016 at 11:38:59 PM

Latest Report: Feb 10, 2016 at 10:50 PM


Visibility: N/A

Pressure: 29.56 "Hg

Humidity: 93%

Dew point: 34 °F

Location of ForchheimLocation

Historic Weather in Forchheim — Graph

°F

Forchheim Temperature Yesterday

Maximum temperature yesterday: 52 °F (at 7:20 PM)
Minimum temperature yesterday: 39 °F (at 4:20 AM)
Average temperature yesterday: 44 °F

High & Low Weather Summary for the Past Weeks

 TemperatureHumidityPressure
High57 °F (Jan 27, 2:20 PM)100% (Jan 29, 1:20 AM)30.42 "Hg (Jan 29, 1:20 AM)
Low30 °F (Feb 7, 5:20 AM)50% (Feb 7, 1:20 PM)29.15 "Hg (Feb 9, 6:50 PM)
Average43 °F81%29.98 "Hg
* Reported Jan 26 9:20 PM — Feb 10 9:50 PM, Forchheim, Weather by CustomWeather, © 2016

Note: Actual official high and low records may vary slightly from our data, if they occured in-between our weather recording intervals... More about our weather records

Advertising

Forchheim Weather History for the Previous 24 Hours

 ConditionsComfort  
Time TempWeatherWind HumidityBarometerVisibility
9:50 PM
Wed, Feb 10
37 °FLight rain. Passing clouds.15 mph87%29.53 "HgN/A
9:20 PM37 °FLight rain. Passing clouds.14 mph87%29.53 "HgN/A
8:50 PM37 °FLight rain. Passing clouds.15 mph87%29.53 "HgN/A
8:20 PM37 °FLight rain. Passing clouds.16 mph87%29.50 "HgN/A
7:50 PM37 °FLight rain. Passing clouds.17 mph87%29.50 "HgN/A
7:20 PM37 °FLight rain. Passing clouds.18 mph87%29.50 "HgN/A
6:50 PM36 °FLight rain. Passing clouds.16 mph93%29.47 "HgN/A
6:20 PM36 °FLight rain. Partly cloudy.13 mph93%29.47 "HgN/A
5:50 PM36 °FLight rain. Partly cloudy.10 mph93%29.47 "HgN/A
5:20 PM36 °FLight rain. Broken clouds.9 mph93%29.47 "Hg4 mi
4:50 PM36 °FSprinkles. Broken clouds.9 mph93%29.45 "Hg3 mi
4:20 PM36 °FRain showers. Broken clouds.15 mph87%29.45 "Hg3 mi
3:50 PM37 °FSprinkles. Partly sunny.17 mph87%29.45 "Hg6 mi
3:20 PM39 °FSprinkles. Partly sunny.16 mph75%29.42 "HgN/A
2:50 PM39 °FBroken clouds.16 mph75%29.42 "HgN/A
2:20 PM39 °FBroken clouds.18 mph75%29.42 "HgN/A
1:50 PM39 °FSprinkles. Partly sunny.18 mph70%29.42 "HgN/A
1:20 PM39 °FPartly sunny.20 mph70%29.42 "HgN/A
12:50 PM39 °FPartly sunny.20 mph70%29.42 "HgN/A
12:20 PM39 °FPartly sunny.20 mph70%29.45 "HgN/A
11:50 AM39 °FScattered clouds.17 mph70%29.45 "HgN/A
11:20 AM37 °FPartly sunny.18 mph75%29.45 "HgN/A
10:50 AM37 °FPartly sunny.15 mph75%29.45 "HgN/A
10:20 AM37 °FPartly sunny.22 mph75%29.45 "HgN/A
9:50 AM37 °FPartly sunny.12 mph81%29.42 "HgN/A
9:20 AM36 °FBroken clouds.12 mph87%29.42 "HgN/A
8:50 AM36 °FPartly sunny.10 mph87%29.42 "HgN/A
8:20 AM36 °FBroken clouds.10 mph87%29.42 "HgN/A
7:50 AM36 °FScattered clouds.6 mph87%29.39 "HgN/A
7:20 AM36 °FPartly cloudy.5 mph87%29.39 "HgN/A
6:50 AM36 °FPassing clouds.9 mph87%29.39 "HgN/A
6:20 AM36 °FPartly cloudy.8 mph87%29.39 "HgN/A
5:50 AM34 °FPartly cloudy.7 mph93%29.36 "HgN/A
5:20 AM36 °FSprinkles. Partly cloudy.15 mph87%29.36 "HgN/A
4:50 AM36 °FPassing clouds.12 mph87%29.36 "HgN/A
4:20 AM37 °FPartly cloudy.13 mph87%29.36 "HgN/A
3:50 AM37 °FPartly cloudy.10 mph87%29.33 "HgN/A
3:20 AM37 °FPassing clouds.14 mph87%29.33 "HgN/A
2:20 AM39 °FPartly cloudy.8 mph81%29.30 "HgN/A
1:50 AM39 °FPassing clouds.9 mph81%29.33 "HgN/A
1:20 AM39 °FPassing clouds.15 mph81%29.33 "HgN/A
12:20 AM41 °FPassing clouds.15 mph81%29.30 "HgN/A
11:50 PM
Tue, Feb 9
41 °FPartly cloudy.21 mph81%29.30 "HgN/A
11:20 PM41 °FPassing clouds.21 mph81%29.27 "HgN/A
Weather by CustomWeather, © 2016

See weather overviewHow to use our weather pages